Ralph Wien Memorial Airport
PAOT : now visible

Airfield :











YOU CAN JOIN US ON...

 
LOGIN :

Register | Disclaimer

   EN    FR    IT 

 









Legend :    VFR   Marginal VFR   IFR   Intensive IFR   Very Intensive IFR
Visi :
Ceiling :
>= 8 km
>= 3000ft
5 to 8 km
1000 to 3000 ft
1500m to 5 km
500 to 1000 ft
800 to 1500m
200 to 500 ft
< 800m
< 200 ft
Symbols :   Thunderstorms  Fog  Heavy snow  Heavy precipitations  Wind > 20 kt






- Airport Elevation : 14 ft
- IATA code : OTZ


PAOT - Ralph Wien Memorial

CURRENT METAR :
  • 262053Z 09003KT 10SM BKN110 M17/M18 A3036 RMK AO2 SLP281 T11721178 51007 $

EXPIRED METARs :
  • 261953Z 09003KT 10SM BKN120 M18/M20 A3036 RMK AO2 SLP281 T11831200 $
  • 261853Z 00000KT 7SM CLR M21/M21 A3036 RMK AO2 SLP279 T12061211 $
  • 261753Z 00000KT 3SM BR CLR M19/M20 A3034 RMK AO2 SLP274 I6000 T11891200 11161 21200 53007 $

TAF PAOT
Valid from the 26 at 18:00 until the 27 at 18:00 UTC


261740Z 2618/2718 10004KT P6SM FEW120
PAZA FIR / North America



MET'MAP, your aeronautical weather chart ! - Copyright ORBIFLY December 2007 - Disclaimer

ORBIFLY MET'MAP TEAM :

Programming & Development : Alexandra Zaïnal
Concept & original design : Baudouin d'Aumeries
Assistance for programming : Marc-Olivier Méhu
Technical & hardware support : Manuel Goepfert

Contact : metmap@orbifly.com




SOURCES & CREDITS :

   NOAA       Earth
Advisory